Regional Weather Roundup
Issued by NWS

Home | Current Version | Previous Version | Graphics & Text | Print | Product List | Glossary On
Versions: 1 2 3 4 5 6 7 8 9 10 11 12 13 14 15 16 17 18 19 20 21 22 23 24 25 26 27 28 29 30 31 32 33 34 35 36 37 38 39 40 41 42 43 44 45 46 47 48 49 50
064
ASUS45 KBOU 170110
RWRCO

WEATHER ROUNDUP FOR COLORADO
NATIONAL WEATHER SERVICE DENVER/BOULDER CO
600 PM MST TUE JAN 16 2018

NOTE: "FAIR" INDICATES FEW OR NO CLOUDS BELOW 12000 FEET WITH NO
SIGNIFICANT WEATHER AND/OR OBSTRUCTIONS TO VISIBILITY.

COZ001>005-013-030-031-170200-
...NORTHWEST COLORADO...

CITY           SKY/WX    TMP DP  RH WIND       PRES   REMARKS
CRAIG          FAIR      17   3  54 SE3       30.31S
HAYDEN         FAIR      18   3  52 E10       30.32R WCI   6
MEEKER         FAIR      25  17  72 CALM      30.29S
RABBIT EARS PA FAIR      21 -11  23 SW3       30.29R
STEAMBOAT SPGS NOT AVBL
WALDEN         FAIR      16   0  48 CALM      30.31R
$$

COZ006>008-011-170200-
...WEST CENTRAL VALLEYS...

CITY           SKY/WX    TMP DP  RH WIND       PRES   REMARKS
GRAND JUNCTION FAIR      35  16  45 NW6       30.32R WCI  30
MONTROSE       FAIR      33  17  51 CALM      30.32S
EAGLE          FAIR      24   7  48 CALM      30.35R
RIFLE          FAIR      29  16  58 S6        30.31S WCI  23
DELTA          FAIR      36  14  40 CALM      30.32R
NUCLA          FAIR      37   9  30 CALM      30.34S
$$

COZ017>023-064>068-170200-
...SOUTHWEST COLORADO...

CITY           SKY/WX    TMP DP  RH WIND       PRES   REMARKS
DURANGO        FAIR      34  20  56 S3        30.31R
CORTEZ         FAIR      35  21  56 SW8       30.32R WCI  29
PAGOSA SPRINGS FAIR      28  17  64 CALM      30.31R
TELLURIDE      FAIR      29   6  37 W3        30.32R
WOLF CREEK PAS FAIR      23   3  42 NW3       30.36S
$$

COZ009-010-012-014-032>034-037-058>063-170200-
...CENTRAL COLORADO...

CITY           SKY/WX    TMP DP  RH WIND       PRES   REMARKS
ASPEN          FAIR      24   2  38 SW12      30.28S WCI  13
BUENA VISTA    FAIR      19  -2  39 CALM      30.27R
COPPER MTN     NOT AVBL
BERTHOUD PASS  FAIR      12   1  62 NW23G29   30.28S WCI  -7
COTTONWOOD PAS   N/A     34 -11  14 CALM      30.28R
GUNNISON         N/A     22  11  62 NW7       30.31S WCI  13
KREMMLING      FAIR      18   5  57 CALM      30.37S
LEADVILLE      FAIR      20  -7  30 NE10      30.28S WCI   9
MONARCH PASS   FAIR      18  -2  41 SW16      30.39S WCI   3
SALIDA         FAIR      31   8  38 CALM      30.34S
SUNLIGHT       FAIR      23  -9  23 SW5       30.35S WCI  17
WILKERSON PASS FAIR      23 -17  16 CALM      30.31R
$$

COZ069>075-170200-
...SAN LUIS VALLEY/SANGRE DE CRISTO MOUNTAINS...

CITY           SKY/WX    TMP DP  RH WIND       PRES   REMARKS
ALAMOSA        FAIR      23  12  62 CALM      30.31S
DEL NORTE      FAIR      19   8  63 CALM      30.32R
LA VETA PASS   FAIR      16  12  86 SW21G29     N/A  WCI  -2
SAGUACHE       FAIR      14   9  79 CALM      30.32S
$$

COZ035-036-038>040-170200-
...NORTHERN COLORADO FRONT RANGE...

CITY           SKY/WX    TMP DP  RH WIND       PRES   REMARKS
DENVER INTL AP FAIR      22   8  55 SE9       30.28S WCI  12
DMNS CITY PARK NOT AVBL
AURORA         CLEAR     23   5  45 SE12      30.28S WCI  12
FRONT RANGE AP PTCLDY    25   9  50 SE8       30.29F WCI  16
ERIE MUNI ARPT FAIR      22  10  60 W3        30.35S
BOULDER MUN AP FAIR      28  19  69 CALM      30.29F
CENTENNIAL     FAIR      28   4  35 S6        30.27S WCI  22
BROOMFIELD     CLEAR     30   0  27 NE3       30.29S
FORT COLLINS   FAIR      20  13  74 CALM      30.31F
LONGMONT       FAIR      24  15  69 N3        30.32F
$$

COZ041-046-047-076>085-087-088-170200-
...PIKES PEAK/PALMER DIVIDE AND SOUTHERN FOOTHILLS...

CITY           SKY/WX    TMP DP  RH WIND       PRES   REMARKS
COLO. SPRINGS  FAIR      21   3  45 SE8       30.33S WCI  11
A. F. ACADEMY  FAIR      19   1  45 S7        30.30S WCI  10
SCHRIEVER AFB  FAIR      17   1  49 SW5       30.33S WCI  10
CHEYENNE MTN   FAIR      20   8  57 CALM      30.25R
ELLICOTT         N/A    N/A N/A N/A SW8       30.32S
FALCON         FAIR      16   4  58 SW7       30.31S WCI   6
FORT CARSON    FAIR      21   5  50 S7        30.32S WCI  12
LIMON          FAIR      17   0  47 SE7       30.33S WCI   8
MONUMENT HILL  FAIR      19  10  68 S8        30.29R WCI   9
CANON CITY     FAIR      28  18  64 CALM      30.35R
WALSENBURG     FAIR      25  16  68 E3        30.33R
TRINIDAD       FAIR      25   8  48 NE5       30.34R WCI  19
$$

COZ042>045-048>051-090-091-170200-
...NORTHEAST COLORADO...

CITY           SKY/WX    TMP DP  RH WIND       PRES   REMARKS
GREELEY ARPT   FAIR      18   6  59 NE5       30.32F WCI  11
AKRON          FAIR      17   3  54 SE8       30.33S WCI   7
BURLINGTON     FAIR      14   0  53 S10       30.39F WCI   1
WRAY           FAIR      18   1  49 SE7       30.41F WCI   8
YUMA           FAIR      10  -2  56 SE8       30.37S WCI  -1
STERLING       FAIR      21   1  42 CALM      30.35S
HOLYOKE        FAIR      14   3  62 S12       30.40S WCI   0
FORT MORGAN    FAIR      22   3  43 NE5       30.34S WCI  16
$$

COZ086-089-092>099-170200-
...SOUTHEAST COLORADO...

CITY           SKY/WX    TMP DP  RH WIND       PRES   REMARKS
PUEBLO         FAIR      21  10  62 E8        30.37S WCI  11
LA JUNTA       FAIR      24  -1  33 E6        30.40S WCI  17
LAMAR          FAIR      17  -5  37 SE12      30.42F WCI   4
SPRINGFIELD      N/A     13  -3  49 S9        30.41S WCI   1
$$




USA.gov is the U.S. government's official web portal to all federal, state and local government web resources and services.